STARLINK-11450, 62518

Orbit data source: Space-Track

STARLINK-11450, 62518 is a payload satellite owned by SpaceX/Seattle (US) in LEO that was launched on Wed, 08 Jan 2025 UTC via an FALCON 9 launch vehicle from the Air Force Eastern Test Range (AFETR). Payload-class satellites include a variety of spacecraft equipped with specific instruments for various scientific and technological missions. These include communications satellites like Starlink; space stations such as the ISS; scientific satellites like the Hubble; Earth observation satellites from companies like Planet Labs, Umbra, and HawkEye 360; GPS; miniature CubeSats for education and research; and military/defense satellites.

Loading next visibility...
Identifier
62518, 2025-004H
Orbit
LEO
Country
Flag of USUS
Related business
Manufacturer
SpaceX/Seattle
Mission
Operational Commercial Communications
Bus & Motor
STARLINK V2MD, Unknown motor
Mass
960 kg wet, ~910 kg dry
Launch date (UTC)
2025-01-08 (1 year ago)
Launch vehicle
FALCON 9
Launch site
Air Force Eastern Test Range (AFETR)
Object type
Payload
Rocket body
Debris
Shape & HBR
Box + 2 Pan, 18.1 m
Radar Cross Section
36.964 m², Large (>1 m²)

Expand to show TLE details & history
Last TLE update: 9 hours ago

TLE from 9 hours ago
0 STARLINK-11450
1 62518U 25004H   26038.01494128  .00207846  00000-0  15772-2 0  9992
2 62518  42.9990 255.6757 0002010 276.9639  83.1000 15.70928145 62382
Epoch: 2026-02-07T00:21Z
TLE epoch observation values (Epoch: 2026-02-07T00:21:30.926Z)
Latitude
-0.00002°
Longitude
113.15228°
Altitude
355.852 km
Speed
7.698 km/s
True Right ascension
17h 02m 42s
True Declination
0° 00' 00"
Sunlit
Object was in daylight at epoch
Visualization orbit readout
Latitude
Unknown
Longitude
Unknown
Altitude
Unknown
Speed
Unknown
Apparent Right ascension
Unknown
Apparent Declination
Unknown
Sunlit
N/A
Visualization observer readout
Local Sidereal Time
11:31:05
Azimuth
Unknown
Elevation
Unknown
Doppler factor
Unknown
Orbital elements
Apogee altitude
359.579 km
Perigee altitude
356.871 km
Semi-major axis
6,736.362 km
Eccentricity
0.0002
Inclination
42.999°
RAAN
255.6757°
Arg. of periapsis
276.9639°
True anomaly
83.12287°
Mean anomaly
83.1°
Eccentric anomaly
83.11143°
Mean motion
3.92559 °/min
Orbital period
91.71 mins
BSTAR
0.0015772
Loading maneuver chart data...
Computing Atmospheric mass density...
Loading historical data...
Loading historical data...
Loading historical data...
Loading historical data...
Loading historical data...
Loading historical data...
Loading historical data...

Documentation

Showing up to 5 results
|